Time,TemperatureF,DewpointF,PressureIn,WindDirection,WindDirectionDegrees,WindSpeedMPH,WindSpeedGustMPH,Humidity,HourlyPrecipIn,Conditions,Clouds,dailyrainin,SoftwareType,DateUTC
2013-09-02 00:01:00,58.1,50.9,29.93,NW,306,0.0,0.0,77,0.00,,SKC,0.00,VWS V14.01,2013-09-02 05:01:00,
2013-09-02 00:06:00,57.8,51.0,29.93,NW,306,0.0,0.0,78,0.00,,SKC,0.00,VWS V14.01,2013-09-02 05:06:00,
2013-09-02 00:11:00,57.5,50.7,29.93,NW,306,0.0,1.0,78,0.00,,SKC,0.00,VWS V14.01,2013-09-02 05:11:00,
2013-09-02 00:16:00,57.2,50.8,29.93,NW,306,0.0,1.0,79,0.00,,SKC,0.00,VWS V14.01,2013-09-02 05:16:00,
2013-09-02 00:21:00,56.9,50.5,29.93,NW,306,0.0,1.0,79,0.00,,SKC,0.00,VWS V14.01,2013-09-02 05:21:00,
2013-09-02 00:26:00,56.6,50.5,29.93,NW,306,0.0,1.0,80,0.00,,SKC,0.00,VWS V14.01,2013-09-02 05:26:00,
2013-09-02 00:31:00,56.3,50.2,29.93,NW,306,0.0,0.0,80,0.00,,SKC,0.00,VWS V14.01,2013-09-02 05:31:00,
2013-09-02 00:36:00,56.0,50.3,29.93,NW,306,0.0,0.0,81,0.00,,SKC,0.00,VWS V14.01,2013-09-02 05:36:00,
2013-09-02 00:41:00,55.7,50.0,29.93,NW,306,0.0,0.0,81,0.00,,SKC,0.00,VWS V14.01,2013-09-02 05:41:00,
2013-09-02 00:46:00,55.5,50.1,29.93,NW,306,0.0,0.0,82,0.00,,SKC,0.00,VWS V14.01,2013-09-02 05:46:00,
2013-09-02 00:51:00,55.3,49.9,29.93,NW,306,0.0,0.0,82,0.00,,SKC,0.00,VWS V14.01,2013-09-02 05:51:00,
2013-09-02 00:56:00,55.0,49.9,29.93,NW,306,0.0,0.0,83,0.00,,SKC,0.00,VWS V14.01,2013-09-02 05:56:00,
2013-09-02 01:01:00,54.9,49.8,29.93,NW,306,0.0,0.0,83,0.00,,SKC,0.00,VWS V14.01,2013-09-02 06:01:00,
2013-09-02 01:06:00,54.7,50.0,29.93,NW,306,0.0,0.0,84,0.00,,SKC,0.00,VWS V14.01,2013-09-02 06:06:00,
2013-09-02 01:11:00,54.6,49.9,29.94,NW,306,0.0,0.0,84,0.00,,SKC,0.00,VWS V14.01,2013-09-02 06:11:00,
2013-09-02 01:16:00,54.5,50.1,29.94,NW,306,0.0,0.0,85,0.00,,SKC,0.00,VWS V14.01,2013-09-02 06:16:00,
2013-09-02 01:21:00,54.4,50.0,29.94,NW,306,0.0,0.0,85,0.00,,SKC,0.00,VWS V14.01,2013-09-02 06:21:00,
2013-09-02 01:26:00,54.3,50.2,29.94,NW,306,0.0,0.0,86,0.00,,SKC,0.00,VWS V14.01,2013-09-02 06:26:00,
2013-09-02 01:31:00,54.3,50.2,29.94,NW,306,0.0,0.0,86,0.00,,SKC,0.00,VWS V14.01,2013-09-02 06:31:00,
2013-09-02 01:36:00,54.3,50.2,29.94,NW,306,0.0,0.0,86,0.00,,SKC,0.00,VWS V14.01,2013-09-02 06:36:00,
2013-09-02 01:41:00,54.4,50.3,29.94,NW,306,0.0,1.0,86,0.00,,SKC,0.00,VWS V14.01,2013-09-02 06:41:00,
2013-09-02 01:46:00,54.5,50.7,29.94,NW,306,0.0,1.0,87,0.00,,SKC,0.00,VWS V14.01,2013-09-02 06:46:00,
2013-09-02 01:51:00,54.7,50.9,29.94,NW,306,0.0,1.0,87,0.00,,SKC,0.00,VWS V14.01,2013-09-02 06:51:00,
2013-09-02 01:56:00,54.9,51.1,29.94,NW,306,0.0,1.0,87,0.00,,SKC,0.00,VWS V14.01,2013-09-02 06:56:00,
2013-09-02 02:01:00,55.0,51.2,29.94,NW,306,0.0,0.0,87,0.00,,SKC,0.00,VWS V14.01,2013-09-02 07:01:00,
2013-09-02 02:06:00,55.1,51.3,29.94,NW,306,0.0,0.0,87,0.00,,SKC,0.00,VWS V14.01,2013-09-02 07:06:00,
2013-09-02 02:11:00,55.3,51.5,29.94,NW,304,0.0,1.0,87,0.00,,SKC,0.00,VWS V14.01,2013-09-02 07:11:00,
2013-09-02 02:16:00,55.4,51.6,29.94,NW,304,0.0,1.0,87,0.00,,SKC,0.00,VWS V14.01,2013-09-02 07:16:00,
2013-09-02 02:21:00,55.5,51.7,29.94,NW,304,0.0,1.0,87,0.00,,SKC,0.00,VWS V14.01,2013-09-02 07:21:00,
2013-09-02 02:26:00,55.7,51.9,29.95,NW,304,0.0,1.0,87,0.00,,SKC,0.00,VWS V14.01,2013-09-02 07:26:00,
2013-09-02 02:31:00,55.9,51.8,29.94,NW,304,0.0,0.0,86,0.00,,SKC,0.00,VWS V14.01,2013-09-02 07:31:00,
2013-09-02 02:36:00,56.0,51.9,29.94,NW,307,0.0,4.0,86,0.00,,SKC,0.00,VWS V14.01,2013-09-02 07:36:00,
2013-09-02 02:41:00,56.2,52.1,29.94,NW,307,0.0,4.0,86,0.00,,SKC,0.00,VWS V14.01,2013-09-02 07:41:00,
2013-09-02 02:46:00,56.3,52.2,29.94,NW,310,0.0,4.0,86,0.00,,SKC,0.00,VWS V14.01,2013-09-02 07:46:00,
2013-09-02 02:51:00,56.4,52.3,29.94,NW,310,0.0,4.0,86,0.00,,SKC,0.00,VWS V14.01,2013-09-02 07:51:00,
2013-09-02 02:56:00,56.5,52.4,29.95,NW,310,0.0,4.0,86,0.00,,SKC,0.00,VWS V14.01,2013-09-02 07:56:00,
2013-09-02 03:01:00,56.5,52.4,29.95,NW,310,0.0,0.0,86,0.00,,SKC,0.00,VWS V14.01,2013-09-02 08:01:00,
2013-09-02 03:06:00,56.6,52.5,29.94,NW,310,0.0,0.0,86,0.00,,SKC,0.00,VWS V14.01,2013-09-02 08:06:00,
2013-09-02 03:11:00,56.6,52.5,29.95,NW,310,0.0,0.0,86,0.00,,SKC,0.00,VWS V14.01,2013-09-02 08:11:00,
2013-09-02 03:16:00,56.6,52.8,29.95,NW,310,0.0,0.0,87,0.00,,SKC,0.00,VWS V14.01,2013-09-02 08:16:00,
2013-09-02 03:21:00,56.6,52.8,29.95,NW,310,0.0,0.0,87,0.00,,SKC,0.00,VWS V14.01,2013-09-02 08:21:00,
2013-09-02 03:26:00,56.7,52.9,29.95,NW,310,0.0,0.0,87,0.00,,SKC,0.00,VWS V14.01,2013-09-02 08:26:00,
2013-09-02 03:31:00,56.7,52.9,29.95,NW,310,0.0,0.0,87,0.00,,SKC,0.00,VWS V14.01,2013-09-02 08:31:00,
2013-09-02 03:36:00,56.7,52.9,29.95,NW,310,0.0,0.0,87,0.00,,SKC,0.00,VWS V14.01,2013-09-02 08:36:00,
2013-09-02 03:41:00,56.7,52.9,29.95,NW,310,0.0,0.0,87,0.00,,SKC,0.00,VWS V14.01,2013-09-02 08:41:00,
2013-09-02 03:46:00,56.8,52.7,29.95,West,273,0.0,3.0,86,0.00,,SKC,0.00,VWS V14.01,2013-09-02 08:46:00,
2013-09-02 03:51:00,56.9,52.8,29.96,West,273,0.0,3.0,86,0.00,,SKC,0.00,VWS V14.01,2013-09-02 08:51:00,
2013-09-02 03:56:00,56.9,52.8,29.96,WNW,296,0.0,3.0,86,0.00,,SKC,0.00,VWS V14.01,2013-09-02 08:56:00,
2013-09-02 04:01:00,56.9,52.4,29.97,WNW,297,0.0,2.0,85,0.00,,SKC,0.00,VWS V14.01,2013-09-02 09:01:00,
2013-09-02 04:06:00,56.9,52.4,29.96,ESE,116,2.0,5.0,85,0.00,,SKC,0.00,VWS V14.01,2013-09-02 09:06:00,
2013-09-02 04:11:00,56.8,52.3,29.97,WNW,302,1.0,5.0,85,0.00,,SKC,0.00,VWS V14.01,2013-09-02 09:11:00,
2013-09-02 04:16:00,56.6,52.2,29.97,WNW,300,0.0,5.0,85,0.00,,SKC,0.00,VWS V14.01,2013-09-02 09:16:00,
2013-09-02 04:21:00,56.4,52.0,29.97,NW,311,2.0,5.0,85,0.00,,SKC,0.00,VWS V14.01,2013-09-02 09:21:00,
2013-09-02 04:26:00,56.2,52.1,29.97,WNW,301,2.0,5.0,86,0.00,,SKC,0.00,VWS V14.01,2013-09-02 09:26:00,
2013-09-02 04:31:00,55.9,51.8,29.97,WNW,300,0.0,0.0,86,0.00,,SKC,0.00,VWS V14.01,2013-09-02 09:31:00,
2013-09-02 04:36:00,55.8,52.0,29.97,WNW,292,0.0,1.0,87,0.00,,SKC,0.00,VWS V14.01,2013-09-02 09:36:00,
2013-09-02 04:41:00,55.7,51.9,29.97,WNW,292,0.0,1.0,87,0.00,,SKC,0.00,VWS V14.01,2013-09-02 09:41:00,
2013-09-02 04:46:00,55.6,51.8,29.97,WNW,294,0.0,1.0,87,0.00,,SKC,0.00,VWS V14.01,2013-09-02 09:46:00,
2013-09-02 04:51:00,55.5,52.0,29.97,NW,321,4.0,5.0,88,0.00,,SKC,0.00,VWS V14.01,2013-09-02 09:51:00,
2013-09-02 04:56:00,55.5,52.0,29.97,WNW,303,0.0,5.0,88,0.00,,SKC,0.00,VWS V14.01,2013-09-02 09:56:00,
2013-09-02 05:01:00,55.4,51.6,29.97,NW,309,0.0,0.0,87,0.00,,SKC,0.00,VWS V14.01,2013-09-02 10:01:00,
2013-09-02 05:06:00,55.4,51.3,29.97,NW,309,0.0,0.0,86,0.00,,SKC,0.00,VWS V14.01,2013-09-02 10:06:00,
2013-09-02 05:11:00,55.5,51.7,29.97,NW,309,0.0,0.0,87,0.00,,SKC,0.00,VWS V14.01,2013-09-02 10:11:00,
2013-09-02 05:16:00,55.5,51.4,29.98,NW,309,0.0,1.0,86,0.00,,SKC,0.00,VWS V14.01,2013-09-02 10:16:00,
2013-09-02 05:21:00,55.6,51.5,29.98,NW,309,0.0,1.0,86,0.00,,SKC,0.00,VWS V14.01,2013-09-02 10:21:00,
2013-09-02 05:26:00,55.6,51.5,29.98,NW,309,0.0,1.0,86,0.00,,SKC,0.00,VWS V14.01,2013-09-02 10:26:00,
2013-09-02 05:31:00,55.6,51.2,29.98,WNW,294,2.0,4.0,85,0.00,,SKC,0.00,VWS V14.01,2013-09-02 10:31:00,
2013-09-02 05:36:00,55.7,51.3,29.98,NW,312,0.0,6.0,85,0.00,,SKC,0.00,VWS V14.01,2013-09-02 10:36:00,
2013-09-02 05:41:00,55.7,51.3,29.98,NW,312,0.0,6.0,85,0.00,,SKC,0.00,VWS V14.01,2013-09-02 10:41:00,
2013-09-02 05:46:00,55.7,51.0,29.98,NW,321,0.0,8.0,84,0.00,,SKC,0.00,VWS V14.01,2013-09-02 10:46:00,
2013-09-02 05:51:00,55.7,50.6,29.98,NW,306,0.0,8.0,83,0.00,,SKC,0.00,VWS V14.01,2013-09-02 10:51:00,
2013-09-02 05:56:00,55.7,50.6,29.98,NW,312,0.0,8.0,83,0.00,,SKC,0.00,VWS V14.01,2013-09-02 10:56:00,
2013-09-02 06:01:00,55.7,50.6,29.99,NW,307,0.0,2.0,83,0.00,,SKC,0.00,VWS V14.01,2013-09-02 11:01:00,
2013-09-02 06:06:00,55.6,50.8,29.99,NW,308,0.0,2.0,84,0.00,,SKC,0.00,VWS V14.01,2013-09-02 11:06:00,
2013-09-02 06:11:00,55.6,51.2,29.99,NW,308,0.0,2.0,85,0.00,,SKC,0.00,VWS V14.01,2013-09-02 11:11:00,
2013-09-02 06:16:00,55.6,50.8,29.99,WNW,292,0.0,2.0,84,0.00,,SKC,0.00,VWS V14.01,2013-09-02 11:16:00,
2013-09-02 06:21:00,55.5,50.8,29.99,WNW,293,0.0,2.0,84,0.00,,SKC,0.00,VWS V14.01,2013-09-02 11:21:00,
2013-09-02 06:26:00,55.5,50.8,30.00,WSW,254,0.0,6.0,84,0.00,,SKC,0.00,VWS V14.01,2013-09-02 11:26:00,
2013-09-02 06:31:00,55.5,50.4,30.00,WNW,303,0.0,1.0,83,0.00,,SKC,0.00,VWS V14.01,2013-09-02 11:31:00,
2013-09-02 06:36:00,55.5,50.4,30.00,WNW,303,0.0,1.0,83,0.00,,SKC,0.00,VWS V14.01,2013-09-02 11:36:00,
2013-09-02 06:41:00,55.5,50.4,30.00,WNW,302,0.0,2.0,83,0.00,,SKC,0.00,VWS V14.01,2013-09-02 11:41:00,
2013-09-02 06:46:00,55.5,50.4,30.00,WNW,291,0.0,2.0,83,0.00,,SKC,0.00,VWS V14.01,2013-09-02 11:46:00,
2013-09-02 06:51:00,55.5,50.4,30.00,WNW,292,0.0,2.0,83,0.00,,SKC,0.00,VWS V14.01,2013-09-02 11:51:00,
2013-09-02 06:56:00,55.5,50.8,30.00,WNW,292,0.0,2.0,84,0.00,,SKC,0.00,VWS V14.01,2013-09-02 11:56:00,
2013-09-02 07:01:00,55.5,50.8,30.00,WNW,292,0.0,0.0,84,0.00,,SKC,0.00,VWS V14.01,2013-09-02 12:01:00,
2013-09-02 07:06:00,55.5,50.8,30.00,WNW,292,1.0,1.0,84,0.00,,SKC,0.00,VWS V14.01,2013-09-02 12:06:00,
2013-09-02 07:11:00,55.5,50.8,30.00,WNW,292,0.0,1.0,84,0.00,,SKC,0.00,VWS V14.01,2013-09-02 12:11:00,
2013-09-02 07:16:00,55.4,50.7,30.01,NW,314,1.0,4.0,84,0.00,,SKC,0.00,VWS V14.01,2013-09-02 12:16:00,
2013-09-02 07:21:00,55.4,50.7,30.01,NW,321,0.0,7.0,84,0.00,,SKC,0.00,VWS V14.01,2013-09-02 12:21:00,
2013-09-02 07:26:00,55.4,51.0,30.01,WSW,254,0.0,7.0,85,0.00,,SKC,0.00,VWS V14.01,2013-09-02 12:26:00,
2013-09-02 07:31:00,55.3,50.9,30.01,WSW,254,0.0,0.0,85,0.00,,SKC,0.00,VWS V14.01,2013-09-02 12:31:00,
2013-09-02 07:36:00,55.3,51.2,30.01,WSW,254,0.0,1.0,86,0.00,,SKC,0.00,VWS V14.01,2013-09-02 12:36:00,
2013-09-02 07:41:00,55.4,51.3,30.01,WSW,254,0.0,1.0,86,0.00,,SKC,0.00,VWS V14.01,2013-09-02 12:41:00,
2013-09-02 07:46:00,55.5,51.7,30.02,WSW,254,0.0,1.0,87,0.00,,SKC,0.00,VWS V14.01,2013-09-02 12:46:00,
2013-09-02 07:51:00,55.6,51.5,30.02,WSW,254,0.0,1.0,86,0.00,,SKC,0.00,VWS V14.01,2013-09-02 12:51:00,
2013-09-02 07:56:00,55.6,51.5,30.02,NW,310,0.0,5.0,86,0.00,,SKC,0.00,VWS V14.01,2013-09-02 12:56:00,
2013-09-02 08:01:00,55.5,51.4,30.02,NW,310,0.0,0.0,86,0.00,,SKC,0.00,VWS V14.01,2013-09-02 13:01:00,
2013-09-02 08:06:00,55.5,51.7,30.02,NW,307,0.0,4.0,87,0.00,,SKC,0.00,VWS V14.01,2013-09-02 13:06:00,
2013-09-02 08:11:00,55.4,51.9,30.03,NW,321,0.0,5.0,88,0.00,,SKC,0.00,VWS V14.01,2013-09-02 13:11:00,
2013-09-02 08:16:00,55.3,52.1,30.03,NW,305,5.0,5.0,89,0.00,,SKC,0.00,VWS V14.01,2013-09-02 13:16:00,
2013-09-02 08:21:00,55.1,51.9,30.03,WNW,298,0.0,5.0,89,0.00,,SKC,0.00,VWS V14.01,2013-09-02 13:21:00,
2013-09-02 08:26:00,55.0,52.1,30.03,WNW,294,0.0,5.0,90,0.00,,SKC,0.00,VWS V14.01,2013-09-02 13:26:00,
2013-09-02 08:31:00,55.1,52.2,30.02,NW,309,0.0,4.0,90,0.00,,SKC,0.00,VWS V14.01,2013-09-02 13:31:00,
2013-09-02 08:36:00,55.3,52.1,30.02,WNW,287,0.0,4.0,89,0.00,,SKC,0.00,VWS V14.01,2013-09-02 13:36:00,
2013-09-02 08:41:00,55.6,52.1,30.02,NW,323,0.0,4.0,88,0.00,,SKC,0.00,VWS V14.01,2013-09-02 13:41:00,
2013-09-02 08:46:00,55.9,52.1,30.02,WNW,302,7.0,9.0,87,0.00,,SKC,0.00,VWS V14.01,2013-09-02 13:46:00,
2013-09-02 08:51:00,56.2,52.1,30.03,NW,321,0.0,9.0,86,0.00,,SKC,0.00,VWS V14.01,2013-09-02 13:51:00,
2013-09-02 08:56:00,56.4,52.0,30.03,North,11,0.0,9.0,85,0.00,,SKC,0.00,VWS V14.01,2013-09-02 13:56:00,
2013-09-02 09:00:00,56.6,52.2,30.03,North,360,0.0,1.0,85,0.00,,SKC,0.00,VWS V14.01,2013-09-02 14:00:00,
2013-09-02 09:05:00,56.9,52.1,30.03,NW,304,0.0,5.0,84,0.00,,SKC,0.00,VWS V14.01,2013-09-02 14:05:00,
2013-09-02 09:10:00,56.9,52.1,30.03,NW,313,0.0,5.0,84,0.00,,SKC,0.00,VWS V14.01,2013-09-02 14:10:00,
2013-09-02 09:15:00,56.8,52.0,30.03,East,92,5.0,5.0,84,0.00,,SKC,0.00,VWS V14.01,2013-09-02 14:15:00,
2013-09-02 09:21:00,56.8,52.3,30.03,NW,321,0.0,5.0,85,0.00,,SKC,0.00,VWS V14.01,2013-09-02 14:21:00,
2013-09-02 09:26:00,56.8,52.0,30.03,West,271,0.0,5.0,84,0.00,,SKC,0.00,VWS V14.01,2013-09-02 14:26:00,
2013-09-02 09:31:00,56.8,52.0,30.03,NW,306,0.0,5.0,84,0.00,,SKC,0.00,VWS V14.01,2013-09-02 14:31:00,
2013-09-02 09:36:00,56.6,52.2,30.04,WNW,290,0.0,7.0,85,0.00,,SKC,0.00,VWS V14.01,2013-09-02 14:36:00,
2013-09-02 09:41:00,56.6,52.2,30.04,WNW,291,0.0,7.0,85,0.00,,SKC,0.00,VWS V14.01,2013-09-02 14:41:00,
2013-09-02 09:46:00,56.6,52.2,30.04,WNW,286,0.0,7.0,85,0.00,,SKC,0.00,VWS V14.01,2013-09-02 14:46:00,
2013-09-02 09:51:00,56.7,51.9,30.04,West,259,0.0,7.0,84,0.00,,SKC,0.00,VWS V14.01,2013-09-02 14:51:00,
2013-09-02 09:56:00,56.6,52.2,30.04,NW,309,0.0,7.0,85,0.00,,SKC,0.00,VWS V14.01,2013-09-02 14:56:00,
2013-09-02 10:01:00,56.8,52.3,30.04,NNW,334,0.0,1.0,85,0.00,,SKC,0.00,VWS V14.01,2013-09-02 15:01:00,
2013-09-02 10:06:00,57.0,52.5,30.05,NNW,336,0.0,2.0,85,0.00,,SKC,0.00,VWS V14.01,2013-09-02 15:06:00,
2013-09-02 10:11:00,57.1,52.3,30.05,NW,321,0.0,2.0,84,0.00,,SKC,0.00,VWS V14.01,2013-09-02 15:11:00,
2013-09-02 10:16:00,57.1,52.6,30.05,SW,235,0.0,2.0,85,0.00,,SKC,0.00,VWS V14.01,2013-09-02 15:16:00,
2013-09-02 10:21:00,57.2,52.4,30.05,NNW,329,0.0,4.0,84,0.00,,SKC,0.00,VWS V14.01,2013-09-02 15:21:00,
2013-09-02 10:26:00,57.1,52.3,30.05,WNW,303,0.0,8.0,84,0.00,,SKC,0.00,VWS V14.01,2013-09-02 15:26:00,
2013-09-02 10:31:00,57.2,52.4,30.05,NW,308,0.0,0.0,84,0.00,,SKC,0.00,VWS V14.01,2013-09-02 15:31:00,
2013-09-02 10:36:00,57.5,52.4,30.05,WNW,288,0.0,6.0,83,0.00,,SKC,0.00,VWS V14.01,2013-09-02 15:36:00,
2013-09-02 10:41:00,57.7,52.2,30.05,WNW,290,0.0,6.0,82,0.00,,SKC,0.00,VWS V14.01,2013-09-02 15:41:00,
2013-09-02 10:46:00,57.8,52.3,30.05,NW,304,0.0,6.0,82,0.00,,SKC,0.00,VWS V14.01,2013-09-02 15:46:00,
2013-09-02 10:51:00,57.7,52.2,30.05,NW,304,0.0,6.0,82,0.00,,SKC,0.00,VWS V14.01,2013-09-02 15:51:00,
2013-09-02 10:56:00,57.7,51.9,30.05,NW,323,0.0,6.0,81,0.00,,SKC,0.00,VWS V14.01,2013-09-02 15:56:00,
2013-09-02 11:01:00,57.8,52.0,30.05,NW,309,0.0,4.0,81,0.00,,SKC,0.00,VWS V14.01,2013-09-02 16:01:00,
2013-09-02 11:06:00,58.0,52.2,30.05,NW,309,0.0,4.0,81,0.00,,SKC,0.00,VWS V14.01,2013-09-02 16:06:00,
2013-09-02 11:11:00,58.1,52.0,30.05,NNW,331,0.0,4.0,80,0.00,,SKC,0.00,VWS V14.01,2013-09-02 16:11:00,
2013-09-02 11:19:00,58.3,52.5,30.05,NW,308,0.0,4.0,81,0.00,,SKC,0.00,VWS V14.01,2013-09-02 16:19:00,
2013-09-02 11:29:00,58.8,53.0,30.05,East,88,0.0,0.0,81,0.00,,SKC,0.00,VWS V14.01,2013-09-02 16:29:00,
2013-09-02 11:34:00,59.4,52.9,30.05,NW,325,0.0,4.0,79,0.00,,SKC,0.00,VWS V14.01,2013-09-02 16:34:00,
2013-09-02 11:39:00,59.7,53.2,30.04,East,89,0.0,6.0,79,0.00,,SKC,0.00,VWS V14.01,2013-09-02 16:39:00,
2013-09-02 11:44:00,59.8,52.6,30.04,WSW,237,0.0,6.0,77,0.00,,SKC,0.00,VWS V14.01,2013-09-02 16:44:00,
2013-09-02 11:49:00,59.8,52.6,30.04,NW,318,0.0,6.0,77,0.00,,SKC,0.00,VWS V14.01,2013-09-02 16:49:00,
2013-09-02 11:54:00,60.0,52.8,30.04,WSW,239,0.0,6.0,77,0.00,,SKC,0.00,VWS V14.01,2013-09-02 16:54:00,
2013-09-02 11:59:00,60.0,52.8,30.05,WNW,285,0.0,8.0,77,0.00,,SKC,0.00,VWS V14.01,2013-09-02 16:59:00,
2013-09-02 12:04:00,59.8,52.9,30.04,NW,308,0.0,8.0,78,0.00,,SKC,0.00,VWS V14.01,2013-09-02 17:04:00,
2013-09-02 12:09:00,60.0,52.8,30.05,North,360,0.0,8.0,77,0.00,,SKC,0.00,VWS V14.01,2013-09-02 17:09:00,
2013-09-02 12:14:00,60.3,53.4,30.04,North,355,0.0,8.0,78,0.00,,SKC,0.00,VWS V14.01,2013-09-02 17:14:00,
2013-09-02 12:19:00,60.8,53.2,30.04,NW,319,2.0,8.0,76,0.00,,SKC,0.00,VWS V14.01,2013-09-02 17:19:00,
2013-09-02 12:24:00,61.1,53.1,30.05,NW,315,0.0,8.0,75,0.00,,SKC,0.00,VWS V14.01,2013-09-02 17:24:00,
2013-09-02 12:29:00,61.1,53.5,30.05,NNW,327,0.0,4.0,76,0.00,,SKC,0.00,VWS V14.01,2013-09-02 17:29:00,
2013-09-02 12:34:00,61.2,53.2,30.05,West,281,0.0,5.0,75,0.00,,SKC,0.00,VWS V14.01,2013-09-02 17:34:00,
2013-09-02 12:39:00,61.4,53.4,30.04,WNW,290,0.0,5.0,75,0.00,,SKC,0.00,VWS V14.01,2013-09-02 17:39:00,
2013-09-02 12:44:00,61.6,53.2,30.04,WSW,240,0.0,5.0,74,0.00,,SKC,0.00,VWS V14.01,2013-09-02 17:44:00,
2013-09-02 12:49:00,61.7,53.3,30.04,West,275,0.0,5.0,74,0.00,,SKC,0.00,VWS V14.01,2013-09-02 17:49:00,
2013-09-02 12:54:00,61.7,53.3,30.04,NW,314,0.0,6.0,74,0.00,,SKC,0.00,VWS V14.01,2013-09-02 17:54:00,
2013-09-02 12:59:00,61.9,52.8,30.04,WNW,289,0.0,2.0,72,0.00,,SKC,0.00,VWS V14.01,2013-09-02 17:59:00,
2013-09-02 13:04:00,61.9,52.8,30.03,NW,313,0.0,4.0,72,0.00,,SKC,0.00,VWS V14.01,2013-09-02 18:04:00,
2013-09-02 13:09:00,62.0,52.5,30.03,NNW,329,0.0,4.0,71,0.00,,SKC,0.00,VWS V14.01,2013-09-02 18:09:00,
2013-09-02 13:14:00,62.2,53.1,30.03,NW,326,0.0,4.0,72,0.00,,SKC,0.00,VWS V14.01,2013-09-02 18:14:00,
2013-09-02 13:19:00,62.5,53.0,30.03,NNE,30,0.0,4.0,71,0.00,,SKC,0.00,VWS V14.01,2013-09-02 18:19:00,
2013-09-02 13:24:00,62.7,53.2,30.03,North,350,0.0,4.0,71,0.00,,SKC,0.00,VWS V14.01,2013-09-02 18:24:00,
2013-09-02 13:29:00,62.9,52.6,30.03,North,350,0.0,0.0,69,0.00,,SKC,0.00,VWS V14.01,2013-09-02 18:29:00,
2013-09-02 13:34:00,62.7,52.4,30.03,West,260,0.0,5.0,69,0.00,,SKC,0.00,VWS V14.01,2013-09-02 18:34:00,
2013-09-02 13:39:00,62.8,52.5,30.03,WSW,246,0.0,6.0,69,0.00,,SKC,0.00,VWS V14.01,2013-09-02 18:39:00,
2013-09-02 13:44:00,62.9,53.0,30.03,NW,312,0.0,6.0,70,0.00,,SKC,0.00,VWS V14.01,2013-09-02 18:44:00,
2013-09-02 13:49:00,63.1,52.8,30.03,NW,319,0.0,6.0,69,0.00,,SKC,0.00,VWS V14.01,2013-09-02 18:49:00,
2013-09-02 13:54:00,63.5,53.2,30.03,WNW,300,0.0,6.0,69,0.00,,SKC,0.00,VWS V14.01,2013-09-02 18:54:00,
2013-09-02 13:59:00,63.8,53.8,30.03,NNE,29,0.0,2.0,70,0.00,,SKC,0.00,VWS V14.01,2013-09-02 18:59:00,
2013-09-02 14:04:00,64.0,53.2,30.03,West,266,0.0,4.0,68,0.00,,SKC,0.00,VWS V14.01,2013-09-02 19:04:00,
2013-09-02 14:09:00,64.3,52.7,30.02,West,267,0.0,4.0,66,0.00,,SKC,0.00,VWS V14.01,2013-09-02 19:09:00,
2013-09-02 14:14:00,64.5,53.3,30.02,NW,326,0.0,4.0,67,0.00,,SKC,0.00,VWS V14.01,2013-09-02 19:14:00,
2013-09-02 14:19:00,64.9,53.3,30.02,NNW,345,1.0,4.0,66,0.00,,SKC,0.00,VWS V14.01,2013-09-02 19:19:00,
2013-09-02 14:24:00,65.0,53.4,30.02,North,355,0.0,4.0,66,0.00,,SKC,0.00,VWS V14.01,2013-09-02 19:24:00,
2013-09-02 14:29:00,65.1,52.6,30.02,NW,325,0.0,0.0,64,0.00,,SKC,0.00,VWS V14.01,2013-09-02 19:29:00,
2013-09-02 14:34:00,65.1,53.5,30.02,NW,323,0.0,1.0,66,0.00,,SKC,0.00,VWS V14.01,2013-09-02 19:34:00,
2013-09-02 14:39:00,64.8,52.8,30.02,WNW,297,1.0,4.0,65,0.00,,SKC,0.00,VWS V14.01,2013-09-02 19:39:00,
2013-09-02 14:44:00,64.4,52.4,30.02,NW,322,0.0,4.0,65,0.00,,SKC,0.00,VWS V14.01,2013-09-02 19:44:00,
2013-09-02 14:49:00,64.3,53.5,30.01,WNW,288,0.0,4.0,68,0.00,,SKC,0.00,VWS V14.01,2013-09-02 19:49:00,
2013-09-02 14:54:00,64.3,53.1,30.01,WNW,292,0.0,4.0,67,0.00,,SKC,0.00,VWS V14.01,2013-09-02 19:54:00,
2013-09-02 14:59:00,64.5,52.9,30.01,WNW,292,0.0,0.0,66,0.00,,SKC,0.00,VWS V14.01,2013-09-02 19:59:00,
2013-09-02 15:04:00,64.1,53.3,30.01,WNW,290,0.0,4.0,68,0.00,,SKC,0.00,VWS V14.01,2013-09-02 20:04:00,
2013-09-02 15:09:00,63.8,53.0,30.01,WNW,295,0.0,4.0,68,0.00,,SKC,0.00,VWS V14.01,2013-09-02 20:09:00,
2013-09-02 15:14:00,63.9,53.5,30.01,NNW,336,1.0,4.0,69,0.00,,SKC,0.00,VWS V14.01,2013-09-02 20:14:00,
2013-09-02 15:19:00,64.5,52.9,30.01,NW,323,0.0,6.0,66,0.00,,SKC,0.00,VWS V14.01,2013-09-02 20:19:00,
2013-09-02 15:24:00,65.1,53.5,30.01,West,259,3.0,6.0,66,0.00,,SKC,0.00,VWS V14.01,2013-09-02 20:24:00,
2013-09-02 15:29:00,65.5,53.8,30.01,NW,312,2.0,7.0,66,0.00,,SKC,0.00,VWS V14.01,2013-09-02 20:29:00,
2013-09-02 15:34:00,65.9,53.8,30.01,West,277,1.0,7.0,65,0.00,,SKC,0.00,VWS V14.01,2013-09-02 20:34:00,
2013-09-02 15:39:00,66.1,54.8,30.01,NNW,330,0.0,7.0,67,0.00,,SKC,0.00,VWS V14.01,2013-09-02 20:39:00,
2013-09-02 15:44:00,66.1,53.6,30.00,NNW,332,4.0,7.0,64,0.00,,SKC,0.00,VWS V14.01,2013-09-02 20:44:00,
2013-09-02 15:49:00,66.3,53.8,30.00,West,266,2.0,7.0,64,0.00,,SKC,0.00,VWS V14.01,2013-09-02 20:49:00,
2013-09-02 15:54:00,66.4,54.3,30.00,WNW,285,1.0,7.0,65,0.00,,SKC,0.00,VWS V14.01,2013-09-02 20:54:00,
2013-09-02 15:59:00,66.8,53.8,30.00,SW,229,3.0,3.0,63,0.00,,SKC,0.00,VWS V14.01,2013-09-02 20:59:00,
2013-09-02 16:04:00,67.0,53.6,30.00,NW,317,1.0,4.0,62,0.00,,SKC,0.00,VWS V14.01,2013-09-02 21:04:00,
2013-09-02 16:09:00,67.1,53.7,30.00,WNW,292,0.0,4.0,62,0.00,,SKC,0.00,VWS V14.01,2013-09-02 21:09:00,
2013-09-02 16:14:00,67.2,53.3,30.00,West,281,0.0,7.0,61,0.00,,SKC,0.00,VWS V14.01,2013-09-02 21:14:00,
2013-09-02 16:19:00,67.2,53.8,30.00,WSW,252,0.0,7.0,62,0.00,,SKC,0.00,VWS V14.01,2013-09-02 21:19:00,
2013-09-02 16:24:00,67.3,53.4,29.99,NW,326,1.0,7.0,61,0.00,,SKC,0.00,VWS V14.01,2013-09-02 21:24:00,
2013-09-02 16:29:00,67.3,53.8,29.99,WSW,248,0.0,0.0,62,0.00,,SKC,0.00,VWS V14.01,2013-09-02 21:29:00,
2013-09-02 16:34:00,67.4,53.5,29.99,WSW,246,0.0,4.0,61,0.00,,SKC,0.00,VWS V14.01,2013-09-02 21:34:00,
2013-09-02 16:39:00,67.6,54.1,29.99,NNE,17,0.0,4.0,62,0.00,,SKC,0.00,VWS V14.01,2013-09-02 21:39:00,
2013-09-02 16:44:00,67.8,53.4,29.99,WSW,243,4.0,7.0,60,0.00,,SKC,0.00,VWS V14.01,2013-09-02 21:44:00,
2013-09-02 16:49:00,67.5,54.0,29.99,SW,234,0.0,7.0,62,0.00,,SKC,0.00,VWS V14.01,2013-09-02 21:49:00,
2013-09-02 16:54:00,67.6,54.1,29.99,NW,304,0.0,7.0,62,0.00,,SKC,0.00,VWS V14.01,2013-09-02 21:54:00,
2013-09-02 16:59:00,67.7,53.3,29.99,West,264,1.0,3.0,60,0.00,,SKC,0.00,VWS V14.01,2013-09-02 21:59:00,
2013-09-02 17:04:00,67.9,53.5,29.99,West,264,0.0,3.0,60,0.00,,SKC,0.00,VWS V14.01,2013-09-02 22:04:00,
2013-09-02 17:09:00,68.3,53.9,29.99,NW,316,0.0,3.0,60,0.00,,SKC,0.00,VWS V14.01,2013-09-02 22:09:00,
2013-09-02 17:14:00,68.6,54.2,29.99,NW,316,0.0,3.0,60,0.00,,SKC,0.00,VWS V14.01,2013-09-02 22:14:00,
2013-09-02 17:19:00,68.9,54.0,29.99,SW,223,4.0,4.0,59,0.00,,SKC,0.00,VWS V14.01,2013-09-02 22:19:00,
2013-09-02 17:24:00,68.6,54.2,29.99,NW,323,0.0,5.0,60,0.00,,SKC,0.00,VWS V14.01,2013-09-02 22:24:00,
2013-09-02 17:29:00,68.7,54.7,29.99,WNW,300,0.0,0.0,61,0.00,,SKC,0.00,VWS V14.01,2013-09-02 22:29:00,
2013-09-02 17:34:00,68.8,54.4,29.99,West,260,0.0,4.0,60,0.00,,SKC,0.00,VWS V14.01,2013-09-02 22:34:00,
2013-09-02 17:39:00,68.7,54.3,29.99,WSW,258,0.0,4.0,60,0.00,,SKC,0.00,VWS V14.01,2013-09-02 22:39:00,
2013-09-02 17:44:00,68.9,54.9,29.99,WSW,258,0.0,4.0,61,0.00,,SKC,0.00,VWS V14.01,2013-09-02 22:44:00,
2013-09-02 17:49:00,69.2,54.7,29.98,WSW,257,0.0,4.0,60,0.00,,SKC,0.00,VWS V14.01,2013-09-02 22:49:00,
2013-09-02 17:54:00,69.2,54.7,29.99,WSW,257,0.0,4.0,60,0.00,,SKC,0.00,VWS V14.01,2013-09-02 22:54:00,
2013-09-02 17:59:00,69.3,55.3,29.99,WSW,257,0.0,0.0,61,0.00,,SKC,0.00,VWS V14.01,2013-09-02 22:59:00,
2013-09-02 18:04:00,69.3,54.8,29.99,NW,313,0.0,4.0,60,0.00,,SKC,0.00,VWS V14.01,2013-09-02 23:04:00,
2013-09-02 18:09:00,69.0,54.5,29.99,NW,320,0.0,4.0,60,0.00,,SKC,0.00,VWS V14.01,2013-09-02 23:09:00,
2013-09-02 18:14:00,68.7,54.3,29.99,NW,320,0.0,4.0,60,0.00,,SKC,0.00,VWS V14.01,2013-09-02 23:14:00,
2013-09-02 18:19:00,68.7,54.3,29.99,NW,320,0.0,4.0,60,0.00,,SKC,0.00,VWS V14.01,2013-09-02 23:19:00,
2013-09-02 18:24:00,68.6,55.1,29.99,NW,320,0.0,4.0,62,0.00,,SKC,0.00,VWS V14.01,2013-09-02 23:24:00,
2013-09-02 18:29:00,68.8,55.3,29.99,NW,320,0.0,0.0,62,0.00,,SKC,0.00,VWS V14.01,2013-09-02 23:29:00,
2013-09-02 18:34:00,68.8,54.8,29.99,NW,320,0.0,1.0,61,0.00,,SKC,0.00,VWS V14.01,2013-09-02 23:34:00,
2013-09-02 18:39:00,68.9,54.9,29.99,NW,320,0.0,1.0,61,0.00,,SKC,0.00,VWS V14.01,2013-09-02 23:39:00,
2013-09-02 18:44:00,68.8,55.3,29.98,NW,320,0.0,1.0,62,0.00,,SKC,0.00,VWS V14.01,2013-09-02 23:44:00,
2013-09-02 21:31:00,51.9,49.4,29.99,NW,320,0.0,0.0,91,0.00,,SKC,0.00,VWS V14.01,2013-09-03 02:31:00,
2013-09-02 21:36:00,51.6,49.4,29.99,NW,320,0.0,0.0,92,0.00,,SKC,0.00,VWS V14.01,2013-09-03 02:36:00,
2013-09-02 21:41:00,51.4,49.2,29.99,NW,320,0.0,0.0,92,0.00,,SKC,0.00,VWS V14.01,2013-09-03 02:41:00,
2013-09-02 21:46:00,51.2,49.0,29.99,NW,320,0.0,0.0,92,0.00,,SKC,0.00,VWS V14.01,2013-09-03 02:46:00,
2013-09-02 21:51:00,51.0,48.8,29.99,NW,320,0.0,0.0,92,0.00,,SKC,0.00,VWS V14.01,2013-09-03 02:51:00,
2013-09-02 21:56:00,50.7,48.5,29.99,NW,320,0.0,0.0,92,0.00,,SKC,0.00,VWS V14.01,2013-09-03 02:56:00,
2013-09-02 22:01:00,50.5,48.6,29.99,NW,320,0.0,0.0,93,0.00,,SKC,0.00,VWS V14.01,2013-09-03 03:01:00,
2013-09-02 22:06:00,50.4,48.5,29.99,NW,320,0.0,0.0,93,0.00,,SKC,0.00,VWS V14.01,2013-09-03 03:06:00,
2013-09-02 22:11:00,50.3,48.4,30.00,NW,320,0.0,0.0,93,0.00,,SKC,0.00,VWS V14.01,2013-09-03 03:11:00,
2013-09-02 22:16:00,50.0,47.8,30.00,NW,320,0.0,0.0,92,0.00,,SKC,0.00,VWS V14.01,2013-09-03 03:16:00,
2013-09-02 22:21:00,49.7,47.8,30.00,NW,320,0.0,0.0,93,0.00,,SKC,0.00,VWS V14.01,2013-09-03 03:21:00,
2013-09-02 22:26:00,49.6,48.0,30.00,NW,320,0.0,0.0,94,0.00,,SKC,0.00,VWS V14.01,2013-09-03 03:26:00,
2013-09-02 22:31:00,49.6,48.0,30.00,NW,320,0.0,0.0,94,0.00,,SKC,0.00,VWS V14.01,2013-09-03 03:31:00,
2013-09-02 22:36:00,49.6,48.0,30.00,NW,320,0.0,0.0,94,0.00,,SKC,0.00,VWS V14.01,2013-09-03 03:36:00,
2013-09-02 22:41:00,49.6,48.0,30.00,NW,320,0.0,0.0,94,0.00,,SKC,0.00,VWS V14.01,2013-09-03 03:41:00,
2013-09-02 22:46:00,49.6,48.0,30.01,NW,320,0.0,0.0,94,0.00,,SKC,0.00,VWS V14.01,2013-09-03 03:46:00,
2013-09-02 22:51:00,49.6,48.2,30.01,NW,320,0.0,0.0,95,0.00,,SKC,0.00,VWS V14.01,2013-09-03 03:51:00,
2013-09-02 22:56:00,49.5,47.8,30.00,NW,320,0.0,0.0,94,0.00,,SKC,0.00,VWS V14.01,2013-09-03 03:56:00,
2013-09-02 23:01:00,49.3,47.7,30.00,NW,320,0.0,0.0,94,0.00,,SKC,0.00,VWS V14.01,2013-09-03 04:01:00,
2013-09-02 23:02:00,49.3,47.7,30.00,NW,320,0.0,0.0,94,0.00,,SKC,0.00,VWS V14.01,2013-09-03 04:02:00,
2013-09-02 23:07:00,49.0,47.3,30.00,NW,320,0.0,0.0,94,0.00,,SKC,0.00,VWS V14.01,2013-09-03 04:07:00,
2013-09-02 23:12:00,48.8,47.2,30.00,NW,320,0.0,0.0,94,0.00,,SKC,0.00,VWS V14.01,2013-09-03 04:12:00,
2013-09-02 23:16:00,48.6,47.0,30.00,NW,320,0.0,0.0,94,0.00,,SKC,0.00,VWS V14.01,2013-09-03 04:16:00,
2013-09-02 23:21:00,48.5,46.9,30.00,NW,320,0.0,0.0,94,0.00,,SKC,0.00,VWS V14.01,2013-09-03 04:21:00,
2013-09-02 23:26:00,48.2,46.6,30.00,NW,320,0.0,0.0,94,0.00,,SKC,0.00,VWS V14.01,2013-09-03 04:26:00,
2013-09-02 23:31:00,48.0,46.4,30.00,NW,320,0.0,0.0,94,0.00,,SKC,0.00,VWS V14.01,2013-09-03 04:31:00,
2013-09-02 23:36:00,47.8,46.2,30.00,NW,320,0.0,0.0,94,0.00,,SKC,0.00,VWS V14.01,2013-09-03 04:36:00,
2013-09-02 23:41:00,47.6,46.0,30.00,NW,320,0.0,0.0,94,0.00,,SKC,0.00,VWS V14.01,2013-09-03 04:41:00,
2013-09-02 23:46:00,47.5,45.9,30.01,NW,320,0.0,0.0,94,0.00,,SKC,0.00,VWS V14.01,2013-09-03 04:46:00,
2013-09-02 23:51:00,47.4,45.8,30.00,NW,320,0.0,0.0,94,0.00,,SKC,0.00,VWS V14.01,2013-09-03 04:51:00,
2013-09-02 23:56:00,47.3,45.9,30.00,NW,320,0.0,0.0,95,0.00,,SKC,0.00,VWS V14.01,2013-09-03 04:56:00,